sat.trackr.live / text

‹ back to catalog

STARLINK-31721

NORAD 59536 · 2024-074C

PAYLOAD ACTIVE UNKNOWN

§ Identity

Operator
Country
US
Launch date
2024-04-18
Launch site
AFETR
Launch vehicle
Mass (kg)
RCS (m²)

Purposes: comms

External: N2YO · Heavens-Above · Gunter

§ Orbital elements

Epoch: 2026-09-21T11:56:57.916320Z

Period
94.27 min
Inclination
43.0010°
Eccentricity
0.0000848
Mean motion
15.27544804 rev/d
Perigee alt
482.6 km
Apogee alt
483.7 km
Semi-major
6,861.3 km
B*
-1.4636e-4
RAAN
317.4463°
Arg perigee
279.1125°
Mean anomaly
80.9630°
Rev number
13,596

§ Raw data

STARLINK-317211 59536U 24074C   26264.49789255 -.00004283  00000+0 -14636-3 0  99952 59536  43.0010 317.4463 0000848 279.1125  80.9630 15.27544804135963

JSON: /api/v1/satellites/59536 · /tle

For live sub-satellite position, see the globe view (requires WebGL).

§ Visibility from observer

Set your observer location to see the next 7 days of passes ≥ 10°. The values pass through the URL so the page stays shareable.

No JS? Fill the form by hand. The geolocation button needs JavaScript.